Precipitable_Water
1.68 1.80 1.84 1.88 1.94 1.93 1.90 1.93 1.94 1.91 1.90 1.88 1.91 1.89 1.82 1.78 1.63 1.70 1.57 1.42 1.48 1.49 1.58 1.75 1.79 1.76 1.72 1.73 1.70 1.64 1.64 1.84 1.92 1.96 2.02 2.04 2.08 2.08 2.04 1.97 1.85 1.82 1.77
1.63 1.66 1.77 1.67 1.63 1.70 1.81 1.80 1.88 1.88 1.87 1.88 1.86 1.83 1.79 1.66 1.64 1.52 1.56 1.68 1.74 1.74 1.71 1.70 1.75 1.76 1.81 1.79 1.77 1.77 1.77 1.90 1.97 2.04 2.06 2.08 2.09 2.04 2.03 1.89 1.86 1.86 1.83
1.61 1.72 1.79 1.85 1.87 1.73 1.61 1.63 1.68 1.73 1.79 1.85 1.85 1.87 1.76 1.61 1.65 1.77 1.81 1.87 1.87 1.85 1.82 1.83 1.82 1.77 1.69 1.60 1.82 1.94 1.88 2.03 2.15 2.03 1.93 1.91 1.89 1.86 1.80 1.79 1.80 1.77 1.66
1.70 1.84 1.75 1.72 1.71 1.72 1.64 1.63 1.61 1.61 1.66 1.74 1.82 1.85 1.81 1.71 1.71 1.79 1.78 1.81 1.67 1.65 1.65 1.57 1.58 1.66 1.71 1.47 1.57 1.84 1.95 2.10 2.21 1.99 1.84 1.79 1.84 1.89 1.93 1.80 1.72 1.63 1.57
1.84 1.82 1.66 1.60 1.58 1.59 1.62 1.65 1.64 1.64 1.78 1.72 1.81 1.81 1.84 1.86 1.85 1.80 1.78 1.80 1.82 1.77 1.78 1.74 1.62 1.61 1.67 1.56 1.60 1.71 1.95 2.08 2.09 2.00 1.95 1.94 1.88 1.79 1.75 1.62 1.49 1.56 1.62
1.86 1.77 1.66 1.68 1.71 1.62 1.65 1.83 1.76 1.87 1.78 1.80 1.87 1.94 2.01 1.87 1.90 1.89 1.89 1.90 1.89 1.79 1.71 1.70 1.59 1.55 1.52 1.53 1.62 1.70 1.77 1.93 2.06 1.86 1.76 1.66 1.69 1.51 1.30 1.51 1.68 1.67 1.66
1.69 1.65 1.64 1.72 1.85 1.77 1.65 1.75 1.88 1.92 1.86 1.86 1.94 1.95 2.02 1.95 1.80 1.93 1.94 1.85 1.78 1.71 1.75 1.63 1.60 1.54 1.45 1.45 1.62 1.69 1.71 1.71 1.69 1.61 1.61 1.73 1.73 1.64 1.45 1.44 1.59 1.59 1.62
1.58 1.66 1.71 1.78 1.88 1.82 1.84 1.91 1.96 1.84 1.86 1.94 2.03 2.04 2.02 1.91 1.93 2.03 1.93 1.80 1.69 1.62 1.59 1.53 1.49 1.48 1.41 1.38 1.49 1.54 1.62 1.66 1.45 1.37 1.28 1.29 1.36 1.32 1.34 1.35 1.37 1.40 1.40
1.90 1.75 1.79 1.84 1.86 1.88 1.91 1.90 1.85 1.83 1.90 1.95 1.99 1.91 2.01 1.93 1.86 1.83 1.76 1.71 1.73 1.70 1.70 1.60 1.44 1.36 1.29 1.35 1.42 1.53 1.64 1.61 1.46 1.31 1.25 1.36 1.27 1.33 1.39 1.44 1.51 1.52 1.39
1.76 1.84 1.85 1.92 1.77 1.76 1.82 1.76 1.78 1.79 1.87 1.90 1.96 1.95 1.82 1.77 1.78 1.75 1.71 1.75 1.73 1.71 1.63 1.57 1.50 1.41 1.30 1.38 1.43 1.51 1.62 1.78 1.51 1.20 1.16 1.36 1.43 1.30 1.33 1.32 1.29 1.27 1.30
1.81 2.06 1.90 1.88 1.88 1.74 1.77 1.85 1.89 1.87 1.91 1.94 1.91 1.89 1.69 1.68 1.85 1.89 1.79 1.78 1.77 1.67 1.54 1.68 1.75 1.56 1.59 1.53 1.45 1.48 1.54 1.69 1.47 1.24 1.13 1.21 1.27 1.29 1.30 1.27 1.28 1.30 1.32
1.60 1.84 1.79 1.80 1.84 1.82 1.76 1.82 1.90 1.85 1.92 1.96 1.83 2.04 2.05 1.89 1.88 1.81 1.76 1.78 1.70 1.60 1.74 1.74 1.80 1.83 1.77 1.75 1.60 1.53 1.42 1.35 1.28 1.19 1.18 1.23 1.25 1.27 1.27 1.28 1.30 1.33 1.37
1.67 1.70 1.79 1.69 1.78 1.74 1.77 1.86 1.89 2.02 2.15 1.92 1.72 1.70 2.02 1.73 1.68 1.66 1.64 1.68 1.76 1.90 1.81 1.83 1.84 1.75 2.03 1.67 1.49 1.39 1.34 1.31 1.20 1.18 1.19 1.29 1.28 1.31 1.32 1.34 1.36 1.35 1.35
1.50 1.55 1.66 1.67 1.76 1.63 1.86 1.91 2.14 2.06 1.78 1.72 1.93 1.92 2.20 1.87 1.75 1.61 1.65 1.66 1.90 1.80 1.71 1.54 1.47 1.47 1.80 1.68 1.57 1.49 1.41 1.32 1.28 1.12 1.13 1.21 1.26 1.32 1.29 1.28 1.29 1.34 1.39
1.39 1.53 1.64 1.61 1.56 1.66 1.78 1.81 1.79 1.85 1.84 1.99 1.83 1.69 1.86 1.74 1.64 1.56 1.62 1.94 1.99 2.10 1.72 1.67 1.53 1.47 1.64 1.54 1.64 1.37 1.39 1.43 1.28 1.13 1.09 1.18 1.21 1.23 1.26 1.31 1.36 1.43 1.48
1.37 1.62 1.60 1.61 1.53 1.76 1.65 1.72 1.80 1.81 1.78 1.99 1.73 1.91 1.78 1.82 1.57 1.52 1.55 1.62 2.02 1.68 1.65 1.69 1.61 1.57 1.48 1.36 1.51 1.52 1.42 1.43 1.48 1.29 1.17 1.15 1.19 1.22 1.28 1.35 1.40 1.42 1.45
1.45 1.51 1.55 1.55 1.61 1.54 1.65 1.70 1.70 1.78 1.79 1.80 1.73 1.86 1.76 1.72 1.65 1.88 1.56 1.58 1.56 1.49 1.36 1.48 1.55 1.47 1.50 1.49 1.40 1.50 1.42 1.40 1.43 1.46 1.34 1.32 1.26 1.28 1.31 1.36 1.39 1.45 1.48
1.44 1.38 1.53 1.54 1.44 1.47 1.64 1.75 1.87 1.74 1.75 1.72 1.74 1.67 1.68 1.57 1.64 1.49 1.43 1.82 1.55 1.47 1.49 1.64 1.46 1.54 1.50 1.44 1.48 1.51 1.42 1.33 1.42 1.42 1.47 1.49 1.51 1.47 1.34 1.38 1.42 1.44 1.49
1.45 1.47 1.55 1.45 1.45 1.54 1.90 1.85 1.72 1.68 1.65 1.68 1.76 1.66 1.60 1.48 1.59 1.59 1.71 1.41 1.38 1.51 1.56 1.52 1.45 1.59 1.43 1.44 1.45 1.38 1.43 1.43 1.45 1.42 1.39 1.48 1.52 1.59 1.49 1.40 1.49 1.48 1.49
1.43 1.61 1.51 1.48 1.58 1.43 1.69 1.72 1.72 1.84 1.68 1.76 1.79 1.70 1.60 1.53 1.56 1.68 1.49 1.35 1.61 1.63 1.70 1.58 1.46 1.50 1.58 1.49 1.51 1.38 1.42 1.49 1.44 1.34 1.41 1.48 1.36 1.49 1.52 1.41 1.55 1.62 1.62
1.38 1.61 1.41 1.53 1.58 1.51 1.57 1.61 1.65 1.55 1.70 1.77 1.74 1.75 1.72 1.57 1.61 1.71 1.60 1.51 1.46 1.60 1.65 1.47 1.44 1.47 1.66 1.54 1.57 1.30 1.40 1.42 1.42 1.42 1.51 1.52 1.43 1.57 1.42 1.44 1.60 1.62 1.60
1.36 1.54 1.56 1.59 1.50 1.58 1.59 1.62 1.69 1.72 1.70 1.75 1.74 1.68 1.96 1.73 1.56 1.67 1.66 1.96 1.83 1.49 1.34 1.64 1.57 1.49 1.44 1.54 1.40 1.40 1.16 1.34 1.47 1.48 1.46 1.41 1.46 1.50 1.53 1.56 1.56 1.57 1.62
1.36 1.55 1.68 1.66 1.45 1.69 1.82 1.83 1.74 1.75 1.65 1.69 1.66 1.62 1.67 1.77 1.70 1.69 1.67 1.97 1.86 1.58 1.25 1.45 1.57 1.54 1.47 1.70 1.79 1.66 1.28 1.18 1.31 1.36 1.28 1.43 1.33 1.52 1.53 1.54 1.63 1.67 1.74
1.37 1.51 1.70 1.79 1.56 1.66 1.83 1.86 1.81 1.69 1.56 1.59 1.69 1.69 1.75 1.71 1.75 1.76 1.73 1.83 1.33 1.29 1.32 1.34 1.55 1.70 1.64 1.57 1.76 1.73 1.55 1.45 1.39 1.21 1.40 1.37 1.35 1.48 1.47 1.49 1.63 1.65 1.80
1.52 1.38 1.50 1.66 1.80 1.79 1.79 1.73 1.73 1.68 1.71 1.79 1.70 1.73 1.70 1.61 1.69 1.68 1.72 1.71 1.73 1.84 1.52 1.58 1.50 1.71 1.84 1.60 1.61 1.71 1.54 1.60 1.73 1.41 1.23 1.29 1.44 1.49 1.58 1.62 1.57 1.81 1.80
1.37 1.44 1.34 1.41 1.68 1.82 1.80 1.88 1.88 1.82 1.81 1.84 1.75 1.66 1.66 1.62 1.61 1.62 1.67 1.72 1.62 1.97 1.60 1.50 1.31 1.56 1.80 1.56 1.76 1.83 1.60 1.39 1.45 1.46 1.78 1.54 1.49 1.66 1.81 1.79 1.70 1.59 1.56
Wind_Speed
13 14 13 13 13 13 12 12 12 12 12 13 13 13 13 13 13 14 15 16 16 16 16 15 16 15 16 16 16 16 16 16 16 17 17 16 16 15 15 15 15 14 14
14 14 13 12 11 11 10 10 10 11 11 11 12 12 13 13 14 15 15 15 15 15 15 16 15 15 15 15 16 16 16 16 16 17 18 17 17 16 16 15 15 14 14
14 13 12 11 10 9 9 9 9 9 9 10 11 11 12 13 14 14 14 15 15 15 15 15 15 15 14 15 15 16 15 14 13 14 17 17 17 17 16 15 15 14 14
13 11 10 9 9 8 8 8 8 9 9 10 10 11 12 13 13 14 14 14 14 14 14 14 14 14 14 14 15 15 15 14 18 17 17 17 17 16 16 15 15 14 14
13 11 9 8 8 8 8 9 9 9 10 10 11 11 12 12 13 14 14 14 14 13 13 14 14 14 14 14 15 14 14 13 16 16 17 16 16 15 15 15 15 15 15
11 9 9 8 8 9 9 9 9 9 10 10 11 11 10 12 13 13 13 13 13 13 14 14 14 13 13 14 14 14 13 13 15 17 16 16 15 16 15 15 15 15 15
10 10 9 9 9 9 9 9 9 9 9 10 11 11 11 12 13 12 13 13 13 13 14 13 14 14 14 13 14 14 15 16 15 15 15 15 16 16 15 15 15 15 14
13 10 10 10 10 9 9 8 9 9 10 10 11 12 13 14 14 12 14 14 14 14 14 14 14 14 14 13 13 13 14 14 14 14 14 15 15 15 15 15 15 14 14
11 10 10 9 10 10 10 10 9 10 10 10 10 11 13 14 14 14 14 15 14 14 13 13 14 13 14 14 14 14 14 14 14 14 14 15 15 15 15 14 15 15 15
10 6 9 9 9 10 10 10 10 11 11 11 12 14 16 16 15 15 15 15 14 13 13 13 13 13 14 14 14 14 13 13 14 14 14 15 14 14 14 14 15 15 15
9 11 9 9 10 9 10 10 11 11 11 12 14 17 19 18 15 14 14 14 13 13 13 13 13 13 14 13 12 12 12 13 13 14 14 14 14 14 14 15 15 15 15
11 9 9 10 10 11 11 11 12 11 11 12 12 13 21 19 15 15 14 13 13 13 12 11 11 11 11 10 11 11 12 13 13 14 14 14 14 14 14 15 15 15 15
10 10 10 10 10 9 10 11 12 12 14 13 17 14 15 17 15 14 13 13 11 10 8 9 8 8 7 9 11 13 13 14 14 14 14 13 14 14 15 15 16 16 16
11 10 11 11 10 11 11 10 11 12 14 15 20 14 15 16 14 12 11 11 10 12 13 11 10 12 11 14 14 13 14 14 13 14 14 14 14 15 15 16 16 16 16
10 10 11 10 10 10 11 12 12 13 12 12 18 16 15 15 13 12 11 9 10 11 11 10 13 13 14 14 13 14 14 14 14 14 14 15 15 16 16 16 16 16 15
10 13 11 10 11 9 12 13 12 13 13 13 13 13 12 13 13 12 11 11 10 13 12 12 12 13 13 14 14 15 15 14 14 15 16 16 16 16 16 15 15 15 15
12 11 10 11 10 10 13 13 14 12 12 13 13 12 13 13 12 11 12 11 10 13 15 15 13 14 14 15 15 14 14 14 15 14 15 16 15 15 14 14 13 13 13
11 10 11 12 11 14 14 11 13 13 13 12 12 12 11 12 12 12 12 11 12 11 11 10 11 11 13 13 13 13 13 13 14 13 13 11 12 12 12 12 12 12 11
11 11 12 11 12 12 12 12 13 12 12 12 11 11 12 12 11 10 10 10 12 10 8 10 11 12 13 13 13 13 13 12 12 13 12 11 10 9 9 9 9 10 10
11 11 12 12 12 13 11 11 11 10 10 11 11 11 11 11 10 9 9 11 10 9 10 10 10 11 10 12 10 12 12 10 12 11 10 10 9 8 7 6 6 6 7
13 12 11 13 12 11 11 11 11 10 10 10 10 10 10 10 9 8 9 8 8 10 10 10 11 10 10 11 11 11 10 10 9 8 7 8 5 6 4 4 6 6 7
13 13 12 12 12 11 11 9 10 9 10 9 9 9 9 8 8 6 6 7 11 8 9 9 10 7 8 11 10 10 9 9 8 7 6 6 4 4 3 2 3 6 8
15 14 12 11 13 12 9 10 10 9 9 8 7 7 8 7 6 4 4 4 8 7 8 9 8 7 8 7 7 8 8 8 8 5 5 4 3 3 1 1 3 5 8
15 14 14 12 12 11 11 9 11 9 8 7 6 7 7 7 6 5 5 4 4 6 6 7 8 7 4 5 8 6 9 8 6 4 4 4 3 4 1 2 3 4 7
16 15 14 13 13 12 11 9 9 9 8 6 7 7 6 6 7 6 6 6 6 6 6 6 7 6 5 5 6 4 6 6 6 3 7 5 4 5 3 2 4 4 7
17 16 15 15 14 13 11 10 10 8 8 7 8 6 7 6 7 7 7 6 6 5 4 4 7 7 4 5 7 2 3 5 6 4 6 4 2 5 2 3 4 6 9
Wind_Direction
117 114 110 107 104 102 100 99 100 99 98 97 95 93 93 94 96 100 99 99 98 97 96 99 97 94 94 93 92 93 95 94 93 92 92 91 92 90 90 90 88 86 83
121 117 111 108 105 104 102 102 102 102 102 100 99 98 96 96 100 101 102 101 100 98 97 97 98 96 95 94 93 95 96 97 95 93 90 89 87 87 87 88 86 84 81
122 120 113 108 105 103 103 104 106 106 106 105 104 103 101 101 103 103 103 103 101 99 98 97 97 96 95 97 96 94 94 91 95 98 90 88 85 85 86 85 84 82 80
126 119 114 109 107 104 103 105 108 109 109 111 109 108 107 107 107 106 105 105 102 100 100 98 98 96 95 98 99 96 93 94 83 91 88 86 85 84 83 83 83 80 79
123 117 112 109 107 107 105 107 108 109 109 112 114 112 111 110 110 109 107 106 103 99 102 101 98 97 96 100 100 97 91 93 83 84 85 85 83 82 81 80 80 80 78
115 114 112 107 107 106 110 108 109 110 111 113 118 119 114 114 113 111 109 107 106 102 102 100 99 99 98 102 103 96 91 87 91 86 84 82 81 82 82 81 81 79 77
119 115 109 106 108 105 108 107 111 114 117 118 119 118 120 123 117 114 108 108 108 104 103 101 99 100 99 103 104 98 94 95 92 88 84 82 83 82 81 82 78 76 74
114 108 108 105 105 104 104 107 113 117 119 121 125 126 118 123 118 114 111 107 108 104 101 100 99 99 99 103 105 101 98 94 92 88 84 84 84 82 82 79 76 74 75
114 105 108 106 105 102 100 101 110 121 125 126 132 132 131 131 119 111 109 107 107 105 102 99 98 98 99 102 105 102 99 96 92 88 87 86 85 83 81 77 76 78 78
114 113 108 110 109 105 101 101 105 110 118 119 122 129 136 129 122 113 110 108 106 105 103 103 101 100 101 103 104 103 100 95 94 88 90 89 87 83 80 78 79 79 78
107 112 104 112 111 104 102 105 107 109 111 121 126 131 133 128 122 118 115 110 106 106 104 106 104 102 103 101 103 104 101 105 93 92 93 90 86 84 81 81 81 80 77
118 115 105 111 113 109 103 105 105 103 107 122 133 157 135 121 122 120 118 114 109 107 104 107 108 107 108 105 102 107 103 107 96 96 94 90 88 85 84 83 82 80 78
123 112 113 110 113 106 113 113 96 105 99 112 138 128 118 119 120 121 121 118 110 106 109 107 112 114 112 117 117 110 112 109 100 95 95 92 91 88 87 85 84 82 79
121 118 117 113 112 108 109 111 118 107 103 114 129 129 132 119 121 122 123 120 113 102 107 106 105 110 103 109 117 113 115 112 103 96 96 95 93 92 90 88 85 82 77
117 126 119 116 114 103 115 116 114 114 110 106 100 118 113 115 118 120 121 117 98 109 107 102 105 107 111 114 114 115 115 108 108 98 98 99 97 95 93 89 85 80 75
125 128 119 119 121 106 115 117 115 111 112 111 107 108 112 116 117 117 116 118 102 101 100 105 106 112 115 114 119 117 115 115 106 106 99 101 99 97 93 89 84 79 72
131 129 125 125 124 122 123 120 114 114 116 114 112 109 114 120 117 112 117 111 105 104 103 101 104 110 114 116 120 119 117 114 115 112 109 102 100 97 92 87 82 76 68
135 133 133 128 121 124 127 120 120 120 119 118 119 119 118 121 120 112 115 118 116 113 109 105 109 115 126 122 126 124 121 116 117 115 116 113 106 98 92 86 78 69 60
142 141 139 134 130 132 127 125 127 122 121 122 121 118 118 124 123 117 127 123 127 116 118 110 124 117 124 128 125 128 129 120 123 118 118 112 109 106 98 87 73 59 50
147 147 143 142 136 134 134 129 133 126 126 126 126 119 118 122 125 115 123 124 123 114 114 120 126 131 122 135 134 134 134 130 132 126 121 123 108 110 104 75 58 38 32
157 152 148 149 145 144 142 135 133 138 131 130 126 124 122 123 126 123 114 124 122 121 116 125 129 133 126 145 136 139 138 137 141 138 143 145 114 126 102 75 46 36 17
163 159 156 156 157 152 148 149 146 141 146 141 136 132 130 128 133 125 121 117 123 121 118 120 135 134 130 140 140 154 146 155 153 158 153 158 143 151 129 70 42 26 14
172 170 167 166 168 165 158 153 154 144 144 143 144 144 148 140 145 135 129 101 126 123 123 136 145 137 134 128 132 140 149 149 150 168 178 166 173 162 168 323 345 348 358
178 180 177 173 172 174 168 163 158 168 161 161 154 156 155 157 159 153 145 119 135 138 140 151 150 144 142 134 141 145 155 148 156 166 191 194 211 201 319 316 291 323 344
184 182 183 184 183 183 179 174 172 170 167 171 167 161 159 162 165 167 158 152 144 157 157 153 163 153 141 157 148 151 171 184 178 190 211 201 216 218 257 306 339 356 340
193 189 189 187 190 189 188 185 181 175 182 179 177 178 174 173 174 181 173 165 162 158 160 164 174 176 171 154 193 196 178 197 199 228 313 172 289 235 258 285 298 321 327